When you browse on this site, cookies collect data to enhance your experience and personalize the content and advertising you see.
Visit our Privacy Policy to learn more. By continuing to use the site, you agree to this use of cookies and data.
  • In Hungary
  • List of Countries
  • For 7 days
  • Water Temperature
  • Weather Map
  • News
  • Weather Widgets
  • user-avatar
    Login

    Hourly Weather Yablunivka

    Today, 5 April, Sunday

    Time Temperature Precipitation Wind Pressure Humidity
    00:00 +5°C° 0 mm 2 mps 762 mmHg 49%
    01:00 +5°C° 0 mm 2 mps 763 mmHg 50%
    02:00 +4°C° 0 mm 2 mps 763 mmHg 53%
    03:00 +4°C° 0 mm 2 mps 763 mmHg 55%
    04:00 +4°C° 0 mm 2 mps 763 mmHg 57%
    05:00 +3°C° 0 mm 2 mps 764 mmHg 58%
    06:00 +4°C° 0 mm 3 mps 764 mmHg 54%
    07:00 +5°C° 0 mm 4 mps 764 mmHg 50%
    08:00 +7°C° 0 mm 5 mps 765 mmHg 43%
    09:00 +7°C° 0 mm 5 mps 765 mmHg 40%
    10:00 +8°C° 0 mm 5 mps 765 mmHg 36%
    11:00 +9°C° 0 mm 6 mps 765 mmHg 32%
    12:00 +9°C° 0 mm 6 mps 765 mmHg 32%
    13:00 +10°C° 0 mm 6 mps 765 mmHg 31%
    14:00 +10°C° 0 mm 6 mps 764 mmHg 30%
    15:00 +10°C° 0 mm 6 mps 765 mmHg 31%
    16:00 +9°C° 0 mm 6 mps 765 mmHg 32%
    17:00 +9°C° 0 mm 6 mps 765 mmHg 33%
    18:00 +7°C° 0 mm 6 mps 765 mmHg 38%
    19:00 +6°C° 0 mm 5 mps 765 mmHg 43%
    20:00 +5°C° 0 mm 4 mps 766 mmHg 48%
    21:00 +4°C° 0 mm 4 mps 766 mmHg 50%
    22:00 +4°C° 0 mm 3 mps 767 mmHg 52%
    23:00 +3°C° 0 mm 3 mps 767 mmHg 54%

    Tomorrow, 6 April, Monday

    Time Temperature Precipitation Wind Pressure Humidity
    00:00 +2°C° 0 mm 3 mps 767 mmHg 55%
    01:00 +2°C° 0 mm 3 mps 768 mmHg 57%
    02:00 +2°C° 0 mm 3 mps 768 mmHg 58%
    03:00 +1°C° 0 mm 3 mps 768 mmHg 61%
    04:00 +1°C° 0 mm 3 mps 768 mmHg 63%
    05:00 0°C° 0 mm 3 mps 769 mmHg 65%
    06:00 +2°C° 0 mm 3 mps 769 mmHg 59%
    07:00 +4°C° 0 mm 4 mps 769 mmHg 53%
    08:00 +5°C° 0 mm 4 mps 769 mmHg 47%
    09:00 +7°C° 0 mm 4 mps 769 mmHg 42%
    10:00 +8°C° 0 mm 5 mps 770 mmHg 37%
    11:00 +9°C° 0 mm 5 mps 770 mmHg 32%
    12:00 +10°C° 0 mm 5 mps 770 mmHg 30%
    13:00 +10°C° 0 mm 5 mps 769 mmHg 28%
    14:00 +12°C° 0 mm 5 mps 769 mmHg 26%
    15:00 +10°C° 0 mm 5 mps 769 mmHg 28%
    16:00 +10°C° 0 mm 5 mps 769 mmHg 29%
    17:00 +11°C° 0 mm 4 mps 769 mmHg 30%
    18:00 +10°C° 0 mm 4 mps 769 mmHg 36%
    19:00 +8°C° 0 mm 3 mps 769 mmHg 41%
    20:00 +7°C° 0 mm 2 mps 769 mmHg 46%
    21:00 +7°C° 0 mm 2 mps 769 mmHg 49%
    22:00 +6°C° 0 mm 2 mps 770 mmHg 52%
    23:00 +6°C° 0 mm 2 mps 770 mmHg 54%

    Day after tomorrow, 7 April, Tuesday

    Time Temperature Precipitation Wind Pressure Humidity
    00:00 +5°C° 0 mm 2 mps 770 mmHg 58%
    01:00 +5°C° 0 mm 2 mps 769 mmHg 62%
    02:00 +5°C° 0 mm 2 mps 769 mmHg 66%
    03:00 +5°C° 0 mm 2 mps 769 mmHg 70%
    04:00 +4°C° 0 mm 2 mps 769 mmHg 74%
    05:00 +4°C° 0 mm 2 mps 770 mmHg 77%
    06:00 +5°C° 0 mm 2 mps 770 mmHg 72%
    07:00 +7°C° 0 mm 3 mps 770 mmHg 68%
    08:00 +9°C° 0 mm 3 mps 770 mmHg 63%
    09:00 +10°C° 0 mm 3 mps 770 mmHg 58%
    10:00 +11°C° 0 mm 3 mps 770 mmHg 53%
    11:00 +12°C° 0 mm 3 mps 770 mmHg 48%
    12:00 +12°C° 0 mm 3 mps 769 mmHg 47%
    13:00 +13°C° 0 mm 3 mps 769 mmHg 46%
    14:00 +13°C° 0 mm 3 mps 769 mmHg 46%
    15:00 +13°C° 0 mm 3 mps 769 mmHg 46%
    16:00 +13°C° 0 mm 3 mps 769 mmHg 47%
    17:00 +12°C° 0 mm 3 mps 768 mmHg 48%
    18:00 +12°C° 0 mm 2 mps 768 mmHg 53%
    19:00 +10°C° 0 mm 2 mps 768 mmHg 58%
    20:00 +9°C° 0 mm 2 mps 768 mmHg 62%
    21:00 +8°C° 0 mm 2 mps 768 mmHg 64%
    22:00 +8°C° 0 mm 2 mps 768 mmHg 65%
    23:00 +7°C° 0 mm 2 mps 768 mmHg 67%

    8 April, Wednesday

    Time Temperature Precipitation Wind Pressure Humidity
    00:00 +7°C° 0 mm 2 mps 768 mmHg 69%
    01:00 +6°C° 0 mm 2 mps 768 mmHg 71%
    02:00 +6°C° 0 mm 2 mps 767 mmHg 73%
    03:00 +6°C° 0 mm 2 mps 767 mmHg 74%
    04:00 +4°C° 0 mm 3 mps 767 mmHg 76%
    05:00 +4°C° 0 mm 3 mps 766 mmHg 77%
    06:00 +7°C° 0 mm 3 mps 766 mmHg 71%
    07:00 +7°C° 0 mm 4 mps 766 mmHg 64%
    08:00 +9°C° 0 mm 5 mps 765 mmHg 58%
    09:00 +12°C° 0 mm 5 mps 764 mmHg 50%
    10:00 +14°C° 0 mm 5 mps 764 mmHg 43%
    11:00 +15°C° 0 mm 6 mps 763 mmHg 36%
    12:00 +16°C° 0 mm 6 mps 762 mmHg 34%
    13:00 +17°C° 0 mm 6 mps 762 mmHg 33%
    14:00 +17°C° 0 mm 6 mps 761 mmHg 31%
    15:00 +17°C° 0 mm 6 mps 761 mmHg 36%
    16:00 +17°C° 0 mm 6 mps 760 mmHg 41%
    17:00 +16°C° 0 mm 5 mps 760 mmHg 45%
    18:00 +14°C° 0 mm 5 mps 760 mmHg 52%
    19:00 +12°C° 0 mm 4 mps 760 mmHg 58%
    20:00 +10°C° 0 mm 4 mps 760 mmHg 65%
    21:00 +10°C° 0 mm 3 mps 760 mmHg 66%
    22:00 +9°C° 0 mm 2 mps 760 mmHg 68%
    23:00 +8°C° 0 mm 2 mps 760 mmHg 70%

    9 April, Thursday

    Time Temperature Precipitation Wind Pressure Humidity
    00:00 +8°C° 0 mm 2 mps 760 mmHg 73%
    01:00 +7°C° 0 mm 2 mps 760 mmHg 76%
    02:00 +7°C° 0 mm 2 mps 760 mmHg 78%
    03:00 +6°C° 0 mm 2 mps 760 mmHg 80%
    04:00 +4°C° 0 mm 3 mps 760 mmHg 81%
    05:00 +4°C° 0 mm 3 mps 760 mmHg 83%
    06:00 +5°C° 0 mm 3 mps 760 mmHg 77%
    07:00 +8°C° 0 mm 3 mps 760 mmHg 70%
    08:00 +9°C° 0 mm 3 mps 760 mmHg 64%
    09:00 +10°C° 0 mm 3 mps 760 mmHg 57%
    10:00 +11°C° 0 mm 3 mps 760 mmHg 51%
    11:00 +12°C° 0 mm 3 mps 760 mmHg 44%
    12:00 +13°C° 0 mm 3 mps 759 mmHg 41%
    13:00 +14°C° 0 mm 3 mps 759 mmHg 38%
    14:00 +15°C° 0 mm 2 mps 758 mmHg 35%
    15:00 +15°C° 0 mm 2 mps 758 mmHg 35%
    16:00 +15°C° 0 mm 2 mps 758 mmHg 35%
    17:00 +15°C° 0 mm 1 mps 757 mmHg 35%
    18:00 +14°C° 0 mm 1 mps 757 mmHg 39%
    19:00 +12°C° 0 mm 1 mps 757 mmHg 44%
    20:00 +10°C° 0 mm 0 mps 757 mmHg 48%
    21:00 +10°C° 0 mm 0 mps 757 mmHg 50%
    22:00 +10°C° 0 mm 1 mps 757 mmHg 52%
    23:00 +10°C° 0 mm 1 mps 756 mmHg 54%

    10 April, Friday

    Time Temperature Precipitation Wind Pressure Humidity
    00:00 +9°C° 0 mm 1 mps 756 mmHg 55%
    01:00 +9°C° 0 mm 1 mps 756 mmHg 56%
    02:00 +8°C° 0 mm 2 mps 755 mmHg 57%
    03:00 +7°C° 0 mm 2 mps 755 mmHg 59%
    04:00 +7°C° 0 mm 2 mps 755 mmHg 60%
    05:00 +6°C° 0 mm 2 mps 754 mmHg 62%
    06:00 +8°C° 0 mm 3 mps 754 mmHg 58%
    07:00 +9°C° 0 mm 3 mps 754 mmHg 55%
    08:00 +11°C° 0 mm 3 mps 753 mmHg 51%
    09:00 +13°C° 0 mm 3 mps 753 mmHg 48%
    10:00 +14°C° 0 mm 3 mps 753 mmHg 45%
    11:00 +17°C° 0 mm 4 mps 752 mmHg 42%
    12:00 +15°C° 0.1 mm 5 mps 752 mmHg 47%
    13:00 +15°C° 0.1 mm 6 mps 751 mmHg 52%
    14:00 +15°C° 0.1 mm 7 mps 751 mmHg 57%
    15:00 +14°C° 0.1 mm 6 mps 751 mmHg 57%
    16:00 +13°C° 0.1 mm 6 mps 751 mmHg 57%
    17:00 +13°C° 0.1 mm 5 mps 751 mmHg 57%
    18:00 +10°C° 0.1 mm 6 mps 752 mmHg 59%
    19:00 +9°C° 0.1 mm 6 mps 752 mmHg 62%
    20:00 +8°C° 0.1 mm 6 mps 753 mmHg 64%
    21:00 +7°C° 0 mm 6 mps 754 mmHg 63%
    22:00 +7°C° 0 mm 6 mps 754 mmHg 62%
    23:00 +5°C° 0 mm 6 mps 754 mmHg 60%
    Show more